Theta_e
286 286 284 283 282 281 280 280 280 279 279 279 279 279 279 278 278 279 279 278 279 279
285 283 283 281 280 280 279 280 278 278 277 278 278 278 277 277 277 278 278 278 278 278
284 282 281 280 279 278 278 277 277 277 277 277 277 277 276 276 277 277 277 277 277 277
282 281 279 279 278 277 277 277 276 276 276 276 276 276 275 275 275 275 275 275 275 275
280 279 278 277 276 277 276 276 276 275 275 275 274 274 274 273 274 273 273 273 273 272
279 278 277 276 276 276 275 275 275 274 274 273 274 273 273 273 272 272 272 272 272 272
278 277 276 276 275 275 274 274 273 273 273 273 272 272 272 272 272 272 272 273 273 273
277 276 276 275 275 274 273 273 273 272 272 272 271 272 271 272 272 272 272 273 274 274
276 275 275 274 274 273 273 272 272 272 271 270 271 274 276 276 273 274 273 272 273 274
275 274 274 273 272 272 271 272 271 271 271 271 271 274 276 276 275 273 272 272 273 273
274 273 273 272 271 271 271 271 270 270 271 270 270 274 275 275 274 273 273 273 273 274
273 273 272 271 270 270 270 270 270 270 269 269 269 272 273 275 273 273 273 274 274 274
273 272 271 270 270 270 270 270 270 269 270 269 267 271 274 275 273 271 272 274 274 274
271 270 271 269 269 269 268 269 268 268 268 269 270 270 273 276 274 272 273 271 271 271
Wind_Speed
12 10 9 9 7 6 5 6 7 6 6 4 4 3 3 3 4 5 4 6 5 6
12 10 10 9 7 6 6 5 7 7 6 4 3 4 4 3 4 5 4 6 7 7
12 9 8 8 9 9 7 7 7 6 5 4 4 3 4 3 4 4 4 5 7 8
11 10 9 10 9 8 7 7 7 6 4 3 2 3 4 4 4 6 7 8 9 12
10 10 11 10 9 8 8 7 7 6 5 5 5 5 5 4 5 7 9 10 11 12
14 14 13 10 9 8 8 7 7 7 6 5 4 5 4 5 7 8 10 11 11 12
15 14 12 10 9 9 8 8 7 7 6 5 5 5 6 8 8 9 10 11 12 13
12 12 11 11 10 9 9 7 6 6 5 4 4 4 7 8 8 10 12 12 13 14
13 13 13 13 12 11 9 8 8 7 5 5 4 11 14 11 8 11 12 13 13 14
15 15 15 13 12 11 10 9 8 7 7 6 5 12 13 14 9 10 12 14 14 14
17 16 14 14 13 11 9 9 7 7 6 4 5 11 11 13 10 9 13 14 15 17
18 16 15 14 13 11 10 9 7 6 5 6 6 11 11 11 7 10 12 13 14 15
17 17 17 15 14 11 10 9 7 6 6 6 6 10 10 11 5 7 9 12 11 19
14 16 15 14 11 11 9 8 7 7 6 7 8 8 9 13 7 6 9 8 10 11
Wind_Direction
190 189 180 173 168 173 171 165 158 153 156 166 183 210 228 234 241 248 247 256 255 263
190 184 179 166 158 161 156 156 154 156 159 170 196 216 228 230 244 255 265 266 264 263
188 177 166 161 164 159 159 157 156 153 165 186 194 203 232 238 247 255 265 268 270 269
180 171 161 169 163 162 157 157 153 157 175 193 211 228 235 238 260 267 265 264 268 269
166 167 167 164 161 156 152 150 149 159 171 193 214 231 238 252 261 264 267 267 268 269
176 175 174 162 154 146 148 150 154 163 181 195 211 232 250 259 261 261 261 263 265 270
179 175 164 152 149 152 149 155 166 176 185 185 203 238 249 258 260 261 263 268 271 273
167 161 151 149 150 145 154 161 157 168 180 185 212 236 244 249 259 272 276 275 278 277
158 157 156 153 154 154 156 162 168 179 188 203 226 247 257 269 267 275 286 286 280 279
162 160 162 155 151 160 167 163 174 184 195 209 225 257 266 273 288 286 283 281 283 284
163 162 158 156 159 157 157 167 176 185 195 203 241 256 274 285 282 279 279 279 283 287
165 162 159 163 157 159 158 168 174 164 177 208 239 268 275 284 284 278 283 287 293 298
164 162 163 161 162 160 160 158 161 176 184 204 226 254 268 291 270 284 292 294 308 306
162 159 155 151 153 152 154 152 157 170 198 212 223 233 276 293 297 295 302 317 308 304